TimeMDT,TemperatureF,Dew PointF,Humidity,Sea Level PressureIn,VisibilityMPH,Wind Direction,Wind SpeedMPH,Gust SpeedMPH,PrecipitationIn,Events,Conditions,WindDirDegrees,DateUTC
12:53 AM,75.9,41.0,29,29.88,10.0,East,6.9,-,N/A,,Clear,80,2013-07-24 06:53:00
1:53 AM,75.9,39.9,27,29.87,10.0,East,6.9,-,N/A,,Clear,90,2013-07-24 07:53:00
2:53 AM,75.0,39.9,28,29.87,10.0,South,3.5,-,N/A,,Clear,190,2013-07-24 08:53:00
3:53 AM,70.0,44.1,39,29.88,10.0,SSW,5.8,-,N/A,,Clear,200,2013-07-24 09:53:00
4:53 AM,68.0,43.0,40,29.89,10.0,SE,8.1,-,N/A,,Clear,140,2013-07-24 10:53:00
5:53 AM,69.1,43.0,39,29.91,10.0,SSE,8.1,-,N/A,,Clear,160,2013-07-24 11:53:00
6:53 AM,71.1,43.0,36,29.94,10.0,East,8.1,-,N/A,,Clear,100,2013-07-24 12:53:00
7:53 AM,72.0,44.1,37,29.96,10.0,ESE,8.1,-,N/A,,Partly Cloudy,110,2013-07-24 13:53:00
8:53 AM,71.1,51.1,49,30.01,10.0,ESE,17.3,-,0.00,Rain,Light Rain,120,2013-07-24 14:53:00
9:53 AM,73.9,48.0,40,29.99,10.0,SE,15.0,-,0.00,,Overcast,140,2013-07-24 15:53:00
10:53 AM,71.1,52.0,51,30.03,10.0,SE,19.6,27.6,0.00,Rain,Light Rain,130,2013-07-24 16:53:00
11:53 AM,69.1,53.1,57,30.05,10.0,SSE,16.1,25.3,0.00,Rain,Light Rain,150,2013-07-24 17:53:00
12:53 PM,73.0,48.0,41,30.05,10.0,SE,9.2,16.1,0.00,,Overcast,140,2013-07-24 18:53:00
1:53 PM,71.1,52.0,51,30.02,10.0,ENE,3.5,-,0.00,,Overcast,60,2013-07-24 19:53:00
2:53 PM,73.0,52.0,48,30.00,10.0,ESE,8.1,-,N/A,,Clear,110,2013-07-24 20:53:00
3:53 PM,81.0,46.0,29,29.95,10.0,ENE,5.8,-,N/A,,Clear,70,2013-07-24 21:53:00
4:53 PM,82.0,46.0,28,29.93,10.0,Variable,3.5,-,N/A,,Clear,0,2013-07-24 22:53:00
5:53 PM,82.9,44.1,25,29.90,10.0,South,3.5,-,N/A,,Clear,180,2013-07-24 23:53:00
6:53 PM,81.0,48.0,31,29.89,10.0,East,4.6,-,N/A,,Clear,90,2013-07-25 00:53:00
7:53 PM,81.0,46.9,30,29.88,10.0,Calm,Calm,-,N/A,,Clear,0,2013-07-25 01:53:00
8:53 PM,77.0,48.0,36,29.91,10.0,East,5.8,-,N/A,,Clear,100,2013-07-25 02:53:00
9:53 PM,73.9,50.0,43,29.92,10.0,Calm,Calm,-,N/A,,Clear,0,2013-07-25 03:53:00
10:53 PM,71.1,50.0,47,29.94,10.0,SSE,8.1,-,N/A,,Clear,160,2013-07-25 04:53:00
11:53 PM,70.0,50.0,49,29.95,10.0,SE,8.1,-,N/A,,Mostly Cloudy,140,2013-07-25 05:53:00